Location: Bannatyne
(13.0833°N, 59.5333°W)
Time: 14:01:54
(UTC+00:00)

Vanguard 2 Rocket - Pass Details

Date: 22 January 2020
Orbit: 554 x 3326 km, 32.9° (Epoch: 29 March)

Event Time Altitude Azimuth Distance (km) Brightness Sun altitude
Rises 12:31:15 0° 313° (NW) 3,780 9.5 27.1°
Reaches altitude 10° 12:34:06 10° 328° (NNW) 3,150 9.3 27.7°
Maximum altitude 12:40:41 25° 22° (NNE) 2,874 9.5 29.0°
Drops below altitude 10° 12:50:39 10° 72° (ENE) 4,933 11.3 31.1°
Sets 12:56:38 0° 83° (E) 6,445 11.9 32.3°
